STARLINK-5259 (54209 NORAD) Tracking and Keplerian Element Data

This shows tracking and keplerian element data for the satellite.

Feedback or suggestion? Click here.




ElementValue
Catalog54209
NameSTARLINK-5259
Epoch Orbit402
Epoch Day324.91667824
Epoch Year2022
RAAN25.7164
Inclination53.2171
Eccentricity0.0003257
Argument of Perigee10.1629
Mean Anonmoly302.0803
Mean Motion15.73236856
Decay Rate-0.00060847
L11 54209U 22141BE 22324.91667824 -.00060847 00000+0 -43141-3 0 9998
L22 54209 53.2171 25.7164 0003257 10.1629 302.0803 15.73236856 4020



Live tracking and technical data element details for STARLINK-5259 (NORAD 54209). STARLINK-5259 can be tracked NOW for your location showing map with azimuth and elevation plus other details from your city location.







IsCatalogInMostPopularTable: catalog: 54209, numindb: 10
Update: records affected: 1



GetName: 54209 STARLINK-5259

Hit Count: updated at: Mon, 28 Nov 2022 21:09:13 GMT